This demonstration page uses our WeatherBlox Daily Observations layout. Learn more.

Left ArrowRight Arrow

38.88101, -77.10428

Hourly Observations for November 29, 2021

Temp ( °F °C ) Dew Point ( °F °C ) Humidity (%) Winds ( mph kmh ) Pressure ( in mb ) Visibility ( mi km ) Precip ( " mm )
12:52 am 00:52 Cloudy 45 7.2 19 -7.2 35 35 NNW 14 22 29.89 1012 10 16 0.00 0.00
1:52 am 01:52 Cloudy 43 6.1 22 -5.6 43 43 NNW 20 31 29.91 1013 10 16 0.00 0.00
2:52 am 02:52 Cloudy 42 5.6 19 -7.2 40 40 WNW 16 26 29.92 1013 10 16 0.00 0.00
3:52 am 03:52 Partly Cloudy 39 3.9 20 -6.7 46 46 NW 9 15 29.93 1014 10 16 0.00 0.00
4:52 am 04:52 Mostly Clear 38 3.3 19 -7.2 46 46 NW 10 17 29.94 1014 10 16 0.00 0.00
5:52 am 05:52 Mostly Clear 38 3.3 20 -6.7 48 48 NW 8 13 29.96 1014 10 16 0.00 0.00
6:52 am 06:52 Mostly Clear 37 2.8 21 -6.1 52 52 WNW 8 13 29.98 1015 10 16 0.00 0.00
7:52 am 07:52 Mostly Sunny 39 3.9 22 -5.6 50 50 NW 9 15 30.00 1016 10 16 0.00 0.00
8:52 am 08:52 Mostly Sunny 42 5.6 24 -4.4 49 49 NW 9 15 30.03 1017 10 16 0.00 0.00
9:52 am 09:52 Mostly Sunny 44 6.7 25 -3.9 47 47 NW 14 22 30.04 1017 10 16 0.00 0.00
10:52 am 10:52 Mostly Sunny 46 7.8 23 -5 40 40 NNW 20 31 30.04 1017 10 16 0.00 0.00
11:52 am 11:52 Mostly Cloudy 45 7.2 22 -5.6 40 40 NW 22 35 30.02 1017 10 16 0.00 0.00
12:52 pm 12:52 Mostly Cloudy 47 8.3 23 -5 39 39 NNW 18 30 30.01 1016 10 16 0.00 0.00
1:52 pm 13:52 Mostly Cloudy 45 7.2 25 -3.9 46 46 NW 10 17 30.02 1017 10 16 0.00 0.00
2:52 pm 14:52 Mostly Cloudy 45 7.2 25 -3.9 46 46 NNW 15 24 30.02 1017 10 16 0.00 0.00
3:52 pm 15:52 Cloudy 45 7.2 23 -5 42 42 NNW 12 19 30.03 1017 10 16 0.00 0.00
4:52 pm 16:52 Mostly Cloudy 43 6.1 23 -5 45 45 NNW 13 20 30.04 1017 10 16 0.00 0.00
5:52 pm 17:52 Partly Cloudy 41 5 21 -6.1 45 45 NNW 10 17 30.05 1018 10 16 0.00 0.00
6:52 pm 18:52 Mostly Clear 40 4.4 21 -6.1 47 47 NNW 7 11 30.06 1018 10 16 0.00 0.00
7:52 pm 19:52 Mostly Clear 40 4.4 21 -6.1 47 47 W 5 7 30.08 1019 10 16 0.00 0.00
8:52 pm 20:52 Mostly Clear 40 4.4 22 -5.6 49 49 W 6 9 30.09 1019 10 16 0.00 0.00
9:52 pm 21:52 Mostly Clear 38 3.3 23 -5 55 55 WNW 5 7 30.09 1019 10 16 0.00 0.00
10:52 pm 22:52 Mostly Clear 35 1.7 25 -3.9 67 67 WSW 5 7 30.09 1019 10 16 0.00 0.00
11:52 pm 23:52 Mostly Cloudy 36 2.2 24 -4.4 62 62 SW 3 6 30.10 1019 10 16 0.00 0.00

Powered by AerisWeather